When you browse on this site, cookies collect data to enhance your experience and personalize the content and advertising you see.
Visit our Privacy Policy to learn more. By continuing to use the site, you agree to this use of cookies and data.
  • In Romania
  • List of Countries
  • For 7 days
  • Water Temperature
  • Satellite Maps
  • Weather Map
  • Weather Widgets
  • user-avatar
    Login

    Hourly Weather Yandyganovo

    Today, 23 July, Tuesday

    Time Temperature Precipitation Wind Pressure Humidity
    00:00 +15°C° 0 mm 1 mps 747 mmHg 93%
    01:00 +15°C° 0 mm 1 mps 746 mmHg 94%
    02:00 +14°C° 0 mm 1 mps 746 mmHg 95%
    03:00 +14°C° 0 mm 1 mps 747 mmHg 95%
    04:00 +13°C° 0 mm 1 mps 747 mmHg 96%
    05:00 +14°C° 0 mm 1 mps 747 mmHg 95%
    06:00 +15°C° 0 mm 2 mps 747 mmHg 95%
    07:00 +16°C° 0 mm 2 mps 747 mmHg 94%
    08:00 +17°C° 0 mm 3 mps 747 mmHg 91%
    09:00 +18°C° 0 mm 3 mps 747 mmHg 87%
    10:00 +19°C° 0 mm 3 mps 747 mmHg 84%
    11:00 +20°C° 0.5 mm 4 mps 747 mmHg 83%
    12:00 +20°C° 0.5 mm 4 mps 747 mmHg 82%
    13:00 +21°C° 0.5 mm 5 mps 748 mmHg 80%
    14:00 +21°C° 0.9 mm 5 mps 748 mmHg 81%
    15:00 +21°C° 0.9 mm 5 mps 748 mmHg 83%
    16:00 +20°C° 0.9 mm 5 mps 748 mmHg 84%
    17:00 +20°C° 0.2 mm 4 mps 748 mmHg 86%
    18:00 +19°C° 0.2 mm 4 mps 748 mmHg 88%
    19:00 +19°C° 0.2 mm 3 mps 748 mmHg 90%
    20:00 +18°C° 0 mm 3 mps 748 mmHg 91%
    21:00 +17°C° 0 mm 3 mps 749 mmHg 93%
    22:00 +15°C° 0 mm 2 mps 749 mmHg 94%
    23:00 +15°C° 0 mm 2 mps 749 mmHg 95%

    Tomorrow, 24 July, Wednesday

    Time Temperature Precipitation Wind Pressure Humidity
    00:00 +15°C° 0 mm 2 mps 749 mmHg 95%
    01:00 +14°C° 0 mm 2 mps 749 mmHg 96%
    02:00 +14°C° 0 mm 2 mps 749 mmHg 96%
    03:00 +14°C° 0 mm 2 mps 750 mmHg 96%
    04:00 +14°C° 0 mm 2 mps 750 mmHg 97%
    05:00 +15°C° 0 mm 2 mps 750 mmHg 96%
    06:00 +16°C° 0 mm 2 mps 750 mmHg 94%
    07:00 +17°C° 0 mm 2 mps 750 mmHg 93%
    08:00 +18°C° 0 mm 2 mps 750 mmHg 88%
    09:00 +20°C° 0 mm 2 mps 750 mmHg 83%
    10:00 +21°C° 0 mm 2 mps 751 mmHg 77%
    11:00 +23°C° 0.3 mm 2 mps 751 mmHg 77%
    12:00 +22°C° 0.3 mm 3 mps 751 mmHg 78%
    13:00 +24°C° 0.3 mm 3 mps 751 mmHg 78%
    14:00 +24°C° 0.9 mm 3 mps 751 mmHg 78%
    15:00 +24°C° 0.9 mm 3 mps 751 mmHg 79%
    16:00 +24°C° 0.9 mm 3 mps 751 mmHg 79%
    17:00 +24°C° 0.3 mm 2 mps 751 mmHg 81%
    18:00 +23°C° 0.3 mm 2 mps 751 mmHg 83%
    19:00 +23°C° 0.3 mm 2 mps 751 mmHg 86%
    20:00 +21°C° 0 mm 2 mps 751 mmHg 87%
    21:00 +19°C° 0 mm 2 mps 751 mmHg 88%
    22:00 +18°C° 0 mm 2 mps 751 mmHg 89%
    23:00 +18°C° 0 mm 2 mps 752 mmHg 90%

    Day after tomorrow, 25 July, Thursday

    Time Temperature Precipitation Wind Pressure Humidity
    00:00 +17°C° 0 mm 2 mps 752 mmHg 91%
    01:00 +16°C° 0 mm 2 mps 752 mmHg 91%
    02:00 +16°C° 0 mm 2 mps 752 mmHg 92%
    03:00 +16°C° 0 mm 2 mps 752 mmHg 92%
    04:00 +15°C° 0 mm 2 mps 752 mmHg 92%
    05:00 +17°C° 0 mm 2 mps 752 mmHg 91%
    06:00 +18°C° 0 mm 3 mps 753 mmHg 90%
    07:00 +19°C° 0 mm 3 mps 753 mmHg 89%
    08:00 +21°C° 0 mm 3 mps 753 mmHg 82%
    09:00 +22°C° 0 mm 3 mps 753 mmHg 76%
    10:00 +25°C° 0 mm 3 mps 753 mmHg 70%
    11:00 +26°C° 0 mm 3 mps 753 mmHg 65%
    12:00 +27°C° 0 mm 3 mps 753 mmHg 60%
    13:00 +28°C° 0 mm 4 mps 753 mmHg 56%
    14:00 +28°C° 0 mm 3 mps 753 mmHg 57%
    15:00 +28°C° 0 mm 3 mps 753 mmHg 58%
    16:00 +28°C° 0 mm 3 mps 753 mmHg 59%
    17:00 +27°C° 0 mm 3 mps 753 mmHg 65%
    18:00 +26°C° 0 mm 3 mps 752 mmHg 71%
    19:00 +24°C° 0 mm 3 mps 752 mmHg 77%
    20:00 +22°C° 0 mm 3 mps 753 mmHg 78%
    21:00 +20°C° 0 mm 3 mps 753 mmHg 79%
    22:00 +19°C° 0 mm 2 mps 753 mmHg 80%
    23:00 +18°C° 0 mm 3 mps 753 mmHg 81%

    26 July, Friday

    Time Temperature Precipitation Wind Pressure Humidity
    00:00 +18°C° 0 mm 3 mps 753 mmHg 82%
    01:00 +18°C° 0 mm 3 mps 753 mmHg 83%
    02:00 +17°C° 0 mm 2 mps 753 mmHg 82%
    03:00 +17°C° 0 mm 2 mps 753 mmHg 80%
    04:00 +16°C° 0 mm 1 mps 753 mmHg 79%
    05:00 +19°C° 0 mm 1 mps 753 mmHg 76%
    06:00 +20°C° 0 mm 1 mps 753 mmHg 73%
    07:00 +21°C° 0 mm 1 mps 753 mmHg 71%
    08:00 +23°C° 0 mm 1 mps 753 mmHg 67%
    09:00 +24°C° 0 mm 1 mps 753 mmHg 62%
    10:00 +26°C° 0 mm 2 mps 753 mmHg 58%
    11:00 +26°C° 0 mm 2 mps 753 mmHg 56%
    12:00 +27°C° 0 mm 2 mps 753 mmHg 54%
    13:00 +28°C° 0 mm 2 mps 752 mmHg 52%
    14:00 +28°C° 0 mm 2 mps 752 mmHg 53%
    15:00 +28°C° 0 mm 2 mps 752 mmHg 54%
    16:00 +28°C° 0 mm 2 mps 751 mmHg 55%
    17:00 +27°C° 0 mm 2 mps 751 mmHg 61%
    18:00 +26°C° 0 mm 2 mps 751 mmHg 68%
    19:00 +25°C° 0 mm 1 mps 751 mmHg 74%
    20:00 +23°C° 0 mm 2 mps 751 mmHg 78%
    21:00 +21°C° 0 mm 2 mps 750 mmHg 82%
    22:00 +19°C° 0 mm 2 mps 750 mmHg 86%
    23:00 +19°C° 0 mm 2 mps 750 mmHg 86%

    27 July, Saturday

    Time Temperature Precipitation Wind Pressure Humidity
    00:00 +19°C° 0 mm 1 mps 750 mmHg 87%
    01:00 +19°C° 0 mm 1 mps 750 mmHg 87%
    02:00 +18°C° 0 mm 1 mps 749 mmHg 86%
    03:00 +18°C° 0 mm 1 mps 749 mmHg 86%
    04:00 +16°C° 0 mm 1 mps 749 mmHg 85%
    05:00 +18°C° 0 mm 1 mps 749 mmHg 82%
    06:00 +20°C° 0 mm 1 mps 748 mmHg 79%
    07:00 +19°C° 0 mm 0 mps 748 mmHg 76%
    08:00 +22°C° 0 mm 1 mps 748 mmHg 73%
    09:00 +23°C° 0 mm 1 mps 748 mmHg 70%
    10:00 +25°C° 0 mm 1 mps 747 mmHg 67%
    11:00 +25°C° 0.3 mm 1 mps 747 mmHg 65%
    12:00 +24°C° 0.3 mm 0 mps 746 mmHg 63%
    13:00 +25°C° 0.3 mm 0 mps 746 mmHg 60%
    14:00 +25°C° 0.1 mm 0 mps 745 mmHg 59%
    15:00 +25°C° 0.1 mm 0 mps 745 mmHg 57%
    16:00 +25°C° 0.1 mm 0 mps 744 mmHg 56%
    17:00 +26°C° 0.2 mm 1 mps 744 mmHg 64%
    18:00 +24°C° 0.2 mm 1 mps 743 mmHg 71%
    19:00 +23°C° 0.2 mm 2 mps 743 mmHg 79%
    20:00 +22°C° 0 mm 1 mps 743 mmHg 81%
    21:00 +20°C° 0 mm 1 mps 742 mmHg 83%
    22:00 +17°C° 0 mm 0 mps 742 mmHg 85%
    23:00 +17°C° 0 mm 0 mps 741 mmHg 86%

    28 July, Sunday

    Time Temperature Precipitation Wind Pressure Humidity
    00:00 +18°C° 0 mm 1 mps 741 mmHg 87%
    01:00 +18°C° 0 mm 1 mps 740 mmHg 88%
    02:00 +18°C° 0 mm 1 mps 740 mmHg 89%
    03:00 +16°C° 0 mm 1 mps 739 mmHg 90%
    04:00 +16°C° 0 mm 2 mps 739 mmHg 92%
    05:00 +17°C° 0.2 mm 2 mps 738 mmHg 91%
    06:00 +18°C° 0.2 mm 2 mps 738 mmHg 89%
    07:00 +19°C° 0.2 mm 3 mps 737 mmHg 88%
    08:00 +20°C° 0.6 mm 3 mps 737 mmHg 86%
    09:00 +21°C° 0.6 mm 3 mps 736 mmHg 83%
    10:00 +22°C° 0.6 mm 3 mps 736 mmHg 80%
    11:00 +22°C° 1.7 mm 3 mps 735 mmHg 80%
    12:00 +22°C° 1.7 mm 3 mps 735 mmHg 79%
    13:00 +24°C° 1.7 mm 3 mps 735 mmHg 79%
    14:00 +22°C° 1.4 mm 3 mps 734 mmHg 81%
    15:00 +21°C° 1.4 mm 3 mps 734 mmHg 84%
    16:00 +21°C° 1.4 mm 3 mps 734 mmHg 86%
    17:00 +19°C° 0.5 mm 3 mps 734 mmHg 89%
    18:00 +17°C° 0.5 mm 4 mps 734 mmHg 92%
    19:00 +14°C° 0.5 mm 5 mps 734 mmHg 95%
    20:00 +13°C° 0.5 mm 4 mps 734 mmHg 96%
    21:00 +13°C° 0.5 mm 4 mps 734 mmHg 97%
    22:00 +12°C° 0.5 mm 4 mps 734 mmHg 97%
    23:00 +12°C° 0.3 mm 4 mps 734 mmHg 97%
    Show more